Location: Rancho Del Sol Observatory
(38.7214°N, 120.6350°W)
Time: 03:24:11
(UTC-08:00)

Courier 1B Rocket - Pass Details

Date: 01 February 2020
Orbit: 920 x 1202 km, 28.2° (Epoch: 25 February)

Event Time Altitude Azimuth Distance (km) Brightness Sun altitude
Rises 12:06:39 0° 261° (W) 4,037 8.3 34.2°
Reaches altitude 10° 12:09:54 10° 251° (WSW) 3,040 7.9 34.2°
Maximum altitude 12:16:13 30° 194° (SSW) 1,853 8.7 34.2°
Drops below altitude 10° 12:22:13 10° 136° (SE) 2,864 8.2 34.2°
Sets 12:25:10 0° 125° (SE) 3,769 8.5 34.2°
